Denver, CO

1:26 PM MST on January 18, 2017 (GMT -0700)
Denver International

Weather History for KDEN - August, 2013

Change the Weather History Date:

Sunday, August 11, 2013

  Actual Average Record
Temperature  
Mean Temperature 71 °F 74 °F  
Max Temperature 83 °F 88 °F 97 °F (1969)
Min Temperature 58 °F 59 °F 48 °F (1872)
Degree Days  
Heating Degree Days 0 0  
Month to date heating degree days 0 0  
Since 1 June heating degree days 29 68  
Since 1 July heating degree days 0 6  
Cooling Degree Days 6 9  
Month to date cooling degree days 84 104  
Year to date cooling degree days 642 548  
Since 1 June cooling degree days 600 526  
Growing Degree Days 20 (Base 50)    
Moisture  
Dew Point 48 °F    
Average Humidity 52    
Maximum Humidity 77    
Minimum Humidity 26    
Precipitation  
Precipitation T in 0.06 in 0.73 in (1923)
Month to date precipitation 0.69 0.77  
Year to date precipitation 8.66 10.44  
Snow  
Snow 0.00 in - - ()
Month to date snowfall 0  
Since 1 June snowfall 0  
Since 1 July snowfall 0  
Snow Depth 0.00 in    
Sea Level Pressure  
Sea Level Pressure 29.99 in    
Wind  
Wind Speed 6 mph (SSE)    
Max Wind Speed 16 mph    
Max Gust Speed 23 mph    
Visibility 10 miles    
Events      
T = Trace of Precipitation, MM = Missing Value Source: NWS Daily Summary

Daily Weather History Graph

Daily Weather History Graph

Search for Another Location

Airport or City:

Trip Planner

Search our weather history database for the weather conditions in past years. The results will help you decide how hot, cold, wet, or windy it might be!

Date:

Astronomy

Aug. 11, 2013 Rise Set
Actual Time 6:07 AM MDT 7:59 PM MDT
Civil Twilight 5:37 AM MDT 8:29 PM MDT
Nautical Twilight 5:02 AM MDT 9:04 PM MDT
Astronomical Twilight 4:23 AM MDT 9:42 PM MDT
Moon 10:57 AM MDT (8/11) 10:17 PM MDT (8/11)
Length of Visible Light 14h 51m
Length of Day
13h 52m
Waxing Crescent, 22% of the Moon is Illuminated
Aug 11
Waxing Crescent
Aug 14
First Quarter
Aug 20
Full
Aug 28
Last Quarter
Sep 5
New

Hourly Weather History & Observations

Time (MDT) Temp. Dew Point Humidity Pressure Visibility Wind Dir Wind Speed Gust Speed Precip Events Conditions
12:53 AM 64.9 °F 48.0 °F 54% 29.97 in 10.0 mi South 11.5 mph - N/A   Mostly Cloudy
1:53 AM 63.0 °F 50.0 °F 63% 29.96 in 10.0 mi South 12.7 mph - N/A   Mostly Cloudy
2:53 AM 64.9 °F 46.9 °F 52% 29.94 in 10.0 mi SSW 11.5 mph - N/A   Mostly Cloudy
3:53 AM 62.1 °F 48.9 °F 62% 29.98 in 10.0 mi ESE 6.9 mph - N/A   Mostly Cloudy
4:53 AM 59.0 °F 50.0 °F 72% 29.97 in 10.0 mi East 3.5 mph - N/A   Mostly Cloudy
5:53 AM 61.0 °F 50.0 °F 67% 29.99 in 10.0 mi West 5.8 mph - N/A   Mostly Cloudy
6:53 AM 57.9 °F 50.0 °F 75% 30.03 in 10.0 mi WSW 3.5 mph - N/A   Mostly Cloudy
7:53 AM 61.0 °F 51.1 °F 70% 30.06 in 10.0 mi SW 9.2 mph - N/A   Mostly Cloudy
8:53 AM 66.9 °F 51.1 °F 57% 30.05 in 10.0 mi SW 6.9 mph - N/A   Mostly Cloudy
9:53 AM 77.0 °F 48.0 °F 36% 30.04 in 10.0 mi West 6.9 mph - N/A   Mostly Cloudy
10:53 AM 77.0 °F 45.0 °F 32% 30.04 in 10.0 mi North 5.8 mph - N/A   Mostly Cloudy
11:53 AM 82.0 °F 44.1 °F 26% 30.01 in 10.0 mi Variable 6.9 mph - N/A   Mostly Cloudy
12:53 PM 81.0 °F 44.1 °F 27% 30.00 in 10.0 mi NE 13.8 mph 17.3 mph N/A   Mostly Cloudy
1:53 PM 81.0 °F 45.0 °F 28% 29.99 in 10.0 mi Variable 3.5 mph - N/A   Mostly Cloudy
2:53 PM 80.1 °F 44.1 °F 28% 29.98 in 10.0 mi Calm Calm - N/A   Mostly Cloudy
3:53 PM 77.0 °F 48.9 °F 37% 29.99 in 10.0 mi Calm Calm - 0.00 in   Mostly Cloudy
4:53 PM 80.1 °F 45.0 °F 29% 29.97 in 10.0 mi ENE 4.6 mph - N/A   Mostly Cloudy
5:53 PM 81.0 °F 45.0 °F 28% 29.96 in 10.0 mi NNW 4.6 mph - N/A   Mostly Cloudy
6:53 PM 79.0 °F 45.0 °F 30% 29.97 in 10.0 mi NE 3.5 mph - N/A   Mostly Cloudy
7:53 PM 73.0 °F 48.0 °F 41% 29.98 in 10.0 mi ENE 8.1 mph - N/A   Scattered Clouds
8:53 PM 69.1 °F 48.0 °F 47% 30.00 in 10.0 mi ENE 8.1 mph - N/A   Scattered Clouds
9:53 PM 64.9 °F 52.0 °F 63% 30.00 in 10.0 mi East 5.8 mph - N/A   Scattered Clouds
10:53 PM 63.0 °F 53.1 °F 70% 30.01 in 10.0 mi SSE 5.8 mph - N/A   Scattered Clouds
11:53 PM 64.9 °F 50.0 °F 58% 29.99 in 10.0 mi SSW 9.2 mph - N/A   Scattered Clouds